This is the latest recevied weather packets stored in our database for station/object W4SNA-2. If no packets are shown the sender has not sent any weather packets the latest 10 day(s).
| Time | Temp. | Humidity | Pressure | Rain* | Wind** | Luminosity | Snow |
|---|---|---|---|---|---|---|---|
| 1777649144 | 12.78° C | 58% | 1016.6 hPa | 0 mm | - | - | - |
| 1777648844 | 12.78° C | 58% | 1016.6 hPa | 0 mm | - | - | - |
| 1777648544 | 12.78° C | 56% | 1016.7 hPa | 0 mm | - | - | - |
| 1777648244 | 12.78° C | 57% | 1016.7 hPa | 0 mm | - | - | - |
| 1777647945 | 12.22° C | 60% | 1016.5 hPa | 0 mm | - | - | - |
| 1777647644 | 11.11° C | 61% | 1016.6 hPa | 0 mm | - | - | - |
| 1777647344 | 11.67° C | 59% | 1016.7 hPa | 0 mm | - | - | - |
| 1777647044 | 11.67° C | 61% | 1016.7 hPa | 0 mm | - | - | - |
| 1777646744 | 11.67° C | 60% | 1016.7 hPa | 0 mm | - | - | - |
| 1777646444 | 11.67° C | 60% | 1016.6 hPa | 0 mm | - | - | - |
| 1777646145 | 11.11° C | 61% | 1016.7 hPa | 0 mm | - | - | - |
| 1777645844 | 10.56° C | 61% | 1016.8 hPa | 0 mm | - | - | - |
| 1777645544 | 10.56° C | 63% | 1016.9 hPa | 0 mm | - | - | - |
| 1777645244 | 11.11° C | 61% | 1016.8 hPa | 0 mm | - | - | - |
| 1777644944 | 11.11° C | 64% | 1016.6 hPa | 0 mm | - | - | - |
| 1777644644 | 10° C | 65% | 1016.7 hPa | 0 mm | - | - | - |
| 1777644346 | 10° C | 63% | 1016.5 hPa | 0 mm | - | - | - |
| 1777643684 | 11.11° C | 62% | 1016.4 hPa | 0 mm | - | - | - |
| 1777643384 | 10.56° C | 64% | 1016.4 hPa | 0 mm | - | - | - |
| 1777643085 | 10.56° C | 66% | 1016.4 hPa | 0 mm | - | - | - |
| 1777642785 | 10.56° C | 61% | 1016.4 hPa | 0 mm | - | - | - |
| 1777642485 | 11.11° C | 62% | 1016.5 hPa | 0 mm | - | - | - |
| 1777642185 | 11.11° C | 67% | 1016.6 hPa | 0 mm | - | - | - |
| 1777641884 | 10.56° C | 65% | 1016.6 hPa | 0 mm | - | - | - |
| 1777641585 | 10° C | 69% | 1016.6 hPa | 0 mm | - | - | - |
* Rain latest hour (hover to see other rain measurements)
** Current wind speed in m/s (hover to see current wind gust speed)